Regional Weather Roundup
Issued by NWS Goodland, KS

Home | Current Version | Previous Version | Text Only | Print | Product List | Glossary On
Versions: 1 2 3 4 5 6 7 8 9 10 11 12 13 14 15 16 17 18 19 20 21 22 23 24 25 26 27 28 29 30 31 32 33 34 35 36 37 38 39 40 41 42 43 44 45 46 47 48 49 50
000
ASUS43 KGLD 291808
RWRGLD

GOODLAND FORECAST AREA HOURLY WEATHER ROUNDUP
NATIONAL WEATHER SERVICE GOODLAND KS
1100 AM MST THU JAN 29 2015

...OFFICIAL OBSERVATIONS...

CITY           SKY/WX    TMP DP  RH WIND       PRES   REMARKS
GOODLAND KS    SUNNY     40  27  59 N16       30.52R
HILL CITY KS   FAIR      43  25  49 N14G24    30.52R
IMPERIAL NEB   MOSUNNY   39  25  57 NW15      30.52S
MCCOOK NEB     SUNNY     43  23  45 N16G28    30.51S
AKRON CO       MOSUNNY   43  19  38 NW16      30.50S
BURLINGTON CO  MOSUNNY   45  19  35 N14G24    30.50R
LIMON CO       CLOUDY    41  20  43 N12       30.51F
$$

...UNOFFICIAL OBSERVATIONS...

CITY           SKY/WX    TMP DP  RH WIND       PRES   REMARKS
COLBY KS       SUNNY     41  28  60 N18G25    30.52S
GOVE KS          N/A     42  32  68 MISG        N/A
NORTON KS      SUNNY     41  21  45 NW16G22   30.50R
SHARON SPRINGS   N/A     42  28  58 N14G22      N/A
KIT CARSON CO    N/A     46  21  37 MISG        N/A
YUMA CO          N/A     44  17  33 N18         N/A
$$


USA.gov is the U.S. government's official web portal to all federal, state and local government web resources and services.